TimeMST,TemperatureF,Dew PointF,Humidity,Sea Level PressureIn,VisibilityMPH,Wind Direction,Wind SpeedMPH,Gust SpeedMPH,PrecipitationIn,Events,Conditions,WindDirDegrees,DateUTC
12:53 AM,48.9,23.0,36,30.01,10.0,WNW,4.6,-,N/A,,Clear,290,2012-11-18 07:53:00
1:53 AM,52.0,27.0,38,30.01,10.0,SW,6.9,-,N/A,,Mostly Cloudy,220,2012-11-18 08:53:00
2:53 AM,51.1,37.9,61,29.99,10.0,WNW,4.6,-,0.00,,Overcast,300,2012-11-18 09:53:00
3:53 AM,52.0,37.9,59,29.99,10.0,NW,4.6,-,0.00,,Overcast,320,2012-11-18 10:53:00
4:53 AM,50.0,37.0,61,30.01,10.0,NNE,3.5,-,N/A,,Overcast,30,2012-11-18 11:53:00
5:53 AM,48.9,37.9,66,30.01,10.0,East,6.9,-,0.00,Rain,Light Rain,90,2012-11-18 12:53:00
6:53 AM,46.9,44.1,90,30.05,10.0,East,3.5,-,0.00,Rain,Light Rain,100,2012-11-18 13:53:00
7:53 AM,48.0,45.0,89,30.06,10.0,NE,3.5,-,0.00,,Overcast,50,2012-11-18 14:53:00
8:53 AM,50.0,46.0,86,30.08,10.0,NNE,3.5,-,0.01,,Clear,20,2012-11-18 15:53:00
9:53 AM,51.1,45.0,80,30.10,10.0,ENE,4.6,-,N/A,,Clear,70,2012-11-18 16:53:00
10:53 AM,54.0,46.0,75,30.09,10.0,East,3.5,-,N/A,,Partly Cloudy,90,2012-11-18 17:53:00
11:53 AM,57.0,45.0,64,30.05,10.0,SSE,9.2,-,N/A,,Clear,160,2012-11-18 18:53:00
12:53 PM,60.1,46.0,60,30.01,10.0,South,10.4,-,N/A,,Clear,170,2012-11-18 19:53:00
1:53 PM,62.1,44.1,52,29.98,10.0,SSE,8.1,-,N/A,,Clear,160,2012-11-18 20:53:00
2:53 PM,64.9,39.0,39,29.96,10.0,South,12.7,-,N/A,,Clear,180,2012-11-18 21:53:00
3:53 PM,64.0,39.9,41,29.97,10.0,SE,9.2,-,N/A,,Clear,140,2012-11-18 22:53:00
4:53 PM,62.1,39.9,44,29.99,10.0,South,10.4,-,N/A,,Clear,170,2012-11-18 23:53:00
5:53 PM,57.9,42.1,56,30.01,10.0,SE,9.2,-,N/A,,Clear,140,2012-11-19 00:53:00
6:53 PM,55.9,43.0,62,30.05,10.0,SSW,10.4,-,N/A,,Clear,210,2012-11-19 01:53:00
7:53 PM,53.1,42.1,66,30.07,10.0,WSW,8.1,-,N/A,,Clear,250,2012-11-19 02:53:00
8:53 PM,51.1,41.0,68,30.09,10.0,WSW,4.6,-,N/A,,Clear,240,2012-11-19 03:53:00
9:53 PM,48.0,39.0,71,30.11,10.0,WNW,6.9,-,N/A,,Clear,290,2012-11-19 04:53:00
10:53 PM,48.0,36.0,63,30.12,10.0,Calm,Calm,-,N/A,,Clear,0,2012-11-19 05:53:00
11:53 PM,46.0,33.1,61,30.10,10.0,NNE,3.5,-,N/A,,Clear,20,2012-11-19 06:53:00